Location: Caltech
(34.1382°N, 118.1253°W)
Time: 23:46:04
(UTC-07:00)

Iridium 21 - Visible Passes

Search period start: 24 April 2017 00:00
Search period end: 04 May 2017 00:00
Orbit: 776 x 779 km, 86.4° (Epoch: 23 April)

Date Brightness Start Highest point End Pass type
(mag) Time Alt. Az. Time Alt. Az. Time Alt. Az.
24 Apr 7.2 02:42:30 30° NE 02:42:30 30° NE 02:45:43 10° NNE visible
24 Apr 7.2 04:22:58 18° WNW 04:22:58 18° WNW 04:25:30 10° NNW visible
25 Apr 7.9 02:09:10 17° ENE 02:09:10 17° ENE 02:11:19 10° NE visible
25 Apr 6.7 03:49:38 30° NW 03:49:38 30° NW 03:52:52 10° NNW visible
26 Apr 6.5 03:16:18 41° NNW 03:16:18 41° NNW 03:19:39 10° N visible
27 Apr 6.9 02:42:57 35° NNE 02:42:57 35° NNE 02:46:04 10° N visible
27 Apr 7.6 04:23:25 12° WNW 04:23:25 12° WNW 04:24:27 10° NW visible
28 Apr 7.6 02:09:35 22° NE 02:09:35 22° NE 02:12:02 10° NNE visible
28 Apr 7.2 03:50:03 21° NW 03:50:03 21° NW 03:52:31 10° NNW visible
29 Apr 8.2 01:36:12 13° ENE 01:36:12 13° ENE 01:37:14 10° NE visible
29 Apr 6.8 03:16:41 31° NNW 03:16:41 31° NNW 03:19:37 10° N visible
30 Apr 6.9 02:43:18 35° N 02:43:18 35° N 02:46:15 10° N visible
01 May 7.4 02:09:54 27° NE 02:09:54 27° NE 02:12:30 10° NNE visible
01 May 7.6 03:50:22 15° NW 03:50:22 15° NW 03:51:52 10° NW visible
02 May 7.9 01:36:31 17° NE 01:36:31 17° NE 01:38:15 10° NNE visible
02 May 7.2 03:16:59 23° NW 03:16:59 23° NW 03:19:25 10° NNW visible
03 May 7.0 02:43:35 31° NNW 02:43:35 31° NNW 02:46:18 10° N visible
